Date,TemperatureHighF,TemperatureAvgF,TemperatureLowF,DewpointHighF,DewpointAvgF,DewpointLowF,HumidityHigh,HumidityAvg,HumidityLow,PressureMaxIn,PressureMinIn,WindSpeedMaxMPH,WindSpeedAvgMPH,GustSpeedMaxMPH,PrecipitationSumIn
2013-1-1,21,15,10,5,3,-1,74,58,38,30.31,30.19,2,0,9,0.01
2013-1-2,29,22,14,21,14,3,82,72,58,30.21,30.07,7,2,14,0.00
2013-1-3,33,25,13,25,19,9,91,78,57,30.40,30.21,6,1,12,0.01
2013-1-4,40,27,12,26,19,8,89,74,53,30.36,30.18,8,2,17,0.01
2013-1-5,43,35,29,33,27,21,88,71,59,30.18,29.99,11,3,20,0.01
2013-1-6,38,28,20,21,18,14,82,66,48,30.35,30.14,8,2,16,0.00
2013-1-7,49,39,30,26,22,18,64,51,37,30.22,29.99,12,4,22,0.00
2013-1-8,53,43,33,32,29,26,79,59,40,30.15,29.90,9,3,19,0.00
2013-1-9,55,42,29,30,27,23,87,59,29,30.37,30.15,1,0,4,0.00
2013-1-10,43,40,37,43,34,21,99,80,44,30.34,29.69,9,2,15,0.14
2013-1-11,58,51,43,48,44,20,99,79,28,29.71,29.51,13,5,25,0.01
2013-1-12,52,26,19,34,14,8,81,60,28,30.09,29.67,10,3,21,0.00
2013-1-13,24,16,11,8,5,2,74,62,43,30.32,30.06,6,2,15,0.00
2013-1-14,30,18,8,11,7,3,84,63,34,30.49,30.31,4,0,7,0.00
2013-1-15,34,24,16,12,9,6,77,54,33,30.37,30.12,3,0,10,0.00
2013-1-16,50,33,20,32,20,9,85,60,48,30.17,29.96,6,2,15,0.00
2013-1-17,45,35,26,29,25,17,89,68,46,30.45,30.17,3,0,8,0.00
2013-1-18,59,46,32,31,28,24,78,53,31,30.34,29.95,18,6,31,0.00
2013-1-19,60,46,37,31,28,23,67,51,27,30.25,29.89,11,4,22,0.00
2013-1-20,36,23,16,23,7,4,70,50,35,30.39,30.25,4,1,12,0.00
2013-1-21,16,14,12,9,0,-11,75,55,34,30.42,30.35,8,1,15,0.00
2013-1-22,26,18,12,7,2,-3,60,51,39,30.39,30.24,6,1,10,0.00
2013-1-23,41,25,12,20,12,5,76,58,40,30.43,30.16,5,1,12,0.00
2013-1-24,23,15,6,7,0,-5,62,51,39,30.51,30.15,7,2,15,0.00
2013-1-25,47,29,15,21,14,6,73,54,33,30.22,30.11,5,1,11,0.00
2013-1-26,46,33,22,24,20,16,81,62,41,30.28,30.07,5,1,14,0.00
2013-1-27,56,44,36,52,41,21,98,88,53,30.07,29.71,8,2,17,0.01
2013-1-28,73,55,42,59,49,41,97,81,46,29.85,29.61,12,2,24,0.01
2013-1-29,67,44,32,60,41,30,95,90,77,29.67,29.45,9,3,23,0.07
2013-1-30,33,25,18,31,19,11,95,80,64,29.91,29.51,11,4,24,0.00
2013-1-31,18,11,5,11,-2,-6,73,56,50,30.44,29.90,10,3,23,0.00
2013-2-1,26,13,0,14,3,-7,77,63,47,30.43,30.08,7,2,17,0.00
2013-2-2,41,32,25,32,23,13,81,69,58,30.18,30.03,6,1,14,0.01
2013-2-3,44,37,29,30,20,12,73,52,34,30.24,29.83,6,2,16,0.00
2013-2-4,38,30,21,28,23,17,88,75,58,29.97,29.75,6,1,16,0.00
2013-2-5,53,36,21,31,25,18,89,69,34,30.09,29.86,9,2,16,0.00
2013-2-6,60,45,29,39,31,25,87,61,35,30.09,29.85,8,2,21,0.00
2013-2-7,52,41,31,39,32,24,78,71,56,30.20,29.84,6,3,14,0.00
2013-2-8,40,32,28,27,25,24,85,76,58,30.33,30.19,5,1,15,0.00
2013-2-9,46,35,29,32,28,25,90,77,56,30.20,29.87,7,3,16,0.00
2013-2-10,51,42,35,45,30,22,97,62,47,29.82,29.37,17,9,33,0.01
2013-2-11,45,36,25,25,22,19,80,60,42,30.14,29.82,10,3,24,0.00
2013-2-12,45,32,20,26,21,17,92,67,38,30.16,29.91,5,1,11,0.00
2013-2-13,56,41,26,27,23,19,84,51,27,29.91,29.75,9,1,17,0.00
2013-2-14,48,42,35,29,26,19,74,54,37,30.15,29.78,8,3,20,0.00
2013-2-15,34,26,18,29,14,9,88,59,41,30.36,30.15,7,2,15,0.00
2013-2-16,34,26,16,20,16,11,86,67,44,30.30,30.03,10,1,15,0.00
2013-2-17,57,41,26,31,25,19,75,54,34,30.03,29.62,7,1,17,0.00
2013-2-18,54,41,26,38,27,13,82,59,40,30.03,29.51,14,4,28,0.03
2013-2-19,28,22,15,14,5,-2,73,50,29,30.33,30.03,9,3,21,0.01
2013-2-20,24,17,10,8,3,-1,65,54,43,30.37,30.19,4,1,12,0.00
2013-2-21,23,21,19,21,16,8,91,79,53,30.21,29.75,6,3,19,0.00
2013-2-22,25,22,13,21,17,8,92,81,67,30.04,29.75,8,2,17,0.18
2013-2-23,37,21,7,22,13,3,85,71,54,30.03,29.90,7,1,13,0.06
2013-2-24,41,31,18,24,20,14,87,66,46,30.02,29.91,6,1,12,0.05
2013-2-25,38,34,29,28,25,22,74,68,61,29.98,29.74,3,1,11,0.01
2013-2-26,35,32,29,32,29,26,98,91,70,29.83,29.62,9,4,17,0.08
2013-2-27,34,30,27,28,25,23,96,83,65,30.01,29.80,10,4,19,0.15
2013-2-28,32,30,27,25,23,20,79,75,68,30.17,30.01,8,3,18,0.03
2013-3-1,31,28,26,21,20,18,79,73,60,30.27,30.15,6,2,14,0.02
2013-3-2,33,29,23,19,17,14,67,61,54,30.30,30.14,3,0,9,0.00
2013-3-3,40,33,25,25,21,18,74,63,52,30.15,29.75,8,2,16,0.00
2013-3-4,43,38,33,32,27,23,92,67,57,29.95,29.67,6,2,12,0.01
2013-3-5,34,30,26,32,19,14,93,64,56,30.31,29.94,12,5,28,0.01
2013-3-6,37,29,21,21,18,14,77,63,50,30.41,30.26,6,1,13,0.00
2013-3-7,45,32,21,27,22,16,80,67,48,30.28,30.14,8,2,15,0.00
2013-3-8,53,40,30,38,30,24,80,67,49,30.20,29.96,8,2,18,0.01
2013-3-9,52,46,43,52,44,36,99,91,73,29.96,29.56,5,2,14,1.06
2013-3-10,52,37,27,52,36,24,99,94,80,29.85,29.54,11,4,19,0.12
2013-3-11,34,27,24,24,20,18,86,75,55,29.98,29.81,8,3,20,0.01
2013-3-12,40,31,22,26,21,18,91,68,48,30.29,29.98,10,3,20,0.00
2013-3-13,44,33,22,21,18,16,79,56,34,30.45,30.28,5,1,9,0.00
2013-3-14,69,49,34,38,30,21,72,49,27,30.28,30.03,8,2,14,0.00
2013-3-15,81,56,34,43,37,31,93,57,19,30.08,29.64,9,2,19,0.00
2013-3-16,53,39,33,43,31,24,88,74,62,30.09,29.72,6,3,17,0.00
2013-3-17,40,33,28,31,25,21,87,73,58,30.09,29.76,10,3,18,0.00
2013-3-18,47,38,29,35,26,14,96,65,31,30.04,29.72,11,3,22,0.03
2013-3-19,43,35,27,33,19,8,90,53,27,30.22,30.03,8,1,15,0.00
2013-3-20,36,28,19,32,10,3,91,50,26,30.37,30.11,9,3,19,0.00
2013-3-21,32,27,22,17,11,7,59,52,45,30.11,29.89,7,1,13,0.00
2013-3-22,38,33,30,23,19,15,64,56,47,30.01,29.92,5,1,11,0.00
2013-3-23,41,34,30,32,25,21,95,70,47,30.04,29.90,5,1,12,0.03
2013-3-24,30,28,25,28,24,18,95,85,69,30.03,29.88,14,4,21,0.01
2013-3-25,32,28,24,26,22,18,89,78,67,30.30,30.01,10,4,20,0.01
2013-3-26,38,28,21,22,19,16,83,70,49,30.37,30.26,4,1,13,0.01
2013-3-27,49,36,26,31,25,19,76,65,45,30.29,30.18,8,1,12,0.01
2013-3-28,61,47,33,39,32,27,80,60,35,30.23,30.12,4,0,11,0.00
2013-3-29,67,53,38,39,33,29,84,52,24,30.22,30.09,6,1,16,0.00
2013-3-30,65,54,48,54,44,-100,97,72,49,30.09,29.84,6,1,13,0.80
2013-3-31,60,52,46,47,36,23,94,59,25,30.02,29.91,10,2,19,0.14
2013-4-1,46,36,27,32,19,12,87,52,30,30.28,30.02,7,2,15,0.00
2013-4-2,50,42,23,23,18,15,78,41,25,30.33,30.22,4,0,10,0.00
2013-4-3,51,41,31,26,22,21,67,49,32,30.35,30.22,7,1,13,0.00
2013-4-4,64,46,29,33,27,21,80,50,25,30.23,30.03,3,0,11,0.00
2013-4-5,69,55,41,40,35,32,70,50,28,30.16,29.82,10,2,21,0.00
2013-4-6,72,62,53,46,40,33,63,45,29,29.82,29.62,13,5,33,0.00
2013-4-7,75,59,43,53,43,38,92,59,28,29.85,29.66,8,1,18,0.12
2013-4-8,74,62,51,62,57,50,99,84,62,29.72,29.64,6,1,13,0.64
2013-4-9,75,66,49,62,57,44,90,74,58,29.78,29.64,10,2,20,0.42
2013-4-10,47,41,38,45,40,37,97,96,90,29.91,29.70,11,2,31,0.87
2013-4-11,38,35,33,37,29,25,96,77,65,29.76,29.67,9,3,20,0.00
2013-4-12,47,38,33,31,28,24,77,66,50,29.99,29.71,7,2,18,0.00
2013-4-13,58,43,28,40,32,25,91,66,45,30.03,29.72,7,1,16,0.00
2013-4-14,70,60,46,51,43,30,80,55,34,29.70,29.44,15,4,30,0.02
2013-4-15,55,46,42,34,29,23,69,52,35,30.01,29.69,5,1,13,0.02
2013-4-16,48,42,38,33,30,27,76,62,52,30.17,30.00,5,1,10,0.00
2013-4-17,47,45,42,46,41,33,98,88,63,30.09,29.65,10,2,19,0.37
2013-4-18,42,38,36,41,35,27,98,89,68,29.83,29.56,9,4,24,0.40